Location: ?????????
(38.5999°N, 22.7695°E)
Time: 10:19:54
(UTC+00:00)

ASTEX 1 - Pass Details

Date: 23 May 2024
Orbit: 715 x 740 km, 92.7° (Epoch: 18 June)

Event Time Altitude Azimuth Distance (km) Brightness Sun altitude
Rises 02:24:46 0° 182° (S) 3,150 6.3 -8.5°
Reaches altitude 10° 02:27:06 10° 186° (S) 2,229 5.5 -8.2°
Maximum altitude 02:31:57 59° 266° (W) 841 3.5 -7.4°
Drops below altitude 10° 02:36:49 10° 346° (NNW) 2,229 6.2 -6.6°
Sets 02:39:09 0° 350° (N) 3,150 7.0 -6.2°
